Location: Spor
(46.2167°N, 11.0500°E)
Time: 20:05:28
(UTC+00:00)

ADEOS II - Visible Passes

Search period start: 25 September 2020 00:00
Search period end: 05 October 2020 00:00
Orbit: 799 x 802 km, 98.5° (Epoch: 25 September)

Date Brightness Start Highest point End Pass type
(mag) Time Alt. Az. Time Alt. Az. Time Alt. Az.
25 Sep 4.5 00:35:39 10° NE 00:37:23 17° ENE 00:37:23 17° ENE visible
25 Sep 2.9 02:14:39 10° N 02:18:20 40° NNW 02:18:20 40° NNW visible
26 Sep 5.0 00:10:21 10° ENE 00:10:24 10° ENE 00:10:24 10° ENE visible
26 Sep 3.1 01:47:57 10° NNE 01:51:20 41° NNE 01:51:20 41° NNE visible
26 Sep 3.9 03:29:24 10° NNW 03:32:10 15° NW 03:32:15 15° WNW visible
27 Sep 3.7 01:21:27 10° NNE 01:24:19 31° NE 01:24:19 31° NE visible
27 Sep 3.5 03:01:55 10° N 03:05:15 22° NW 03:05:15 22° NW visible
28 Sep 4.3 00:55:11 10° NNE 00:57:19 22° NE 00:57:19 22° NE visible
28 Sep 3.2 02:34:52 10° N 02:38:15 31° NW 02:38:15 31° NW visible
29 Sep 4.8 00:29:17 10° NE 00:30:19 14° NE 00:30:19 14° NE visible
29 Sep 3.2 02:08:02 10° N 02:11:15 36° N 02:11:15 36° N visible
29 Sep 4.2 03:51:41 10° NW 03:51:50 10° NW 03:51:59 10° NW visible
30 Sep 3.5 01:41:23 10° NNE 01:44:14 33° NNE 01:44:14 33° NNE visible
30 Sep 3.8 03:22:33 10° NNW 03:25:10 16° NW 03:25:10 16° NW visible
01 Oct 4.0 01:14:56 10° NNE 01:17:14 25° NE 01:17:14 25° NE visible
01 Oct 3.5 02:55:12 10° N 02:58:10 23° NW 02:58:10 23° NW visible
02 Oct 4.6 00:48:44 10° NE 00:50:14 17° NE 00:50:14 17° NE visible
02 Oct 3.4 02:28:13 10° N 02:31:10 29° NNW 02:31:10 29° NNW visible
03 Oct 5.0 00:22:58 10° NE 00:23:13 11° NE 00:23:13 11° NE visible
03 Oct 3.5 02:01:25 10° N 02:04:09 31° N 02:04:09 31° N visible
03 Oct 4.1 03:43:46 10° NW 03:45:05 11° NW 03:45:05 11° NW visible
04 Oct 3.9 01:34:49 10° NNE 01:37:09 27° NNE 01:37:09 27° NNE visible
04 Oct 3.8 03:15:44 10° NNW 03:18:05 17° NW 03:18:05 17° NW visible
